Time,TemperatureF,DewpointF,PressureIn,WindDirection,WindDirectionDegrees,WindSpeedMPH,WindSpeedGustMPH,Humidity,HourlyPrecipIn,Conditions,Clouds,dailyrainin,SoftwareType,DateUTC
2013-07-08 00:01:00,74.1,69.7,29.84,SSW,202,2.3,3.8,86,0.00,,,0.00,WUHU21623XXSP,2013-07-08 04:01:00,
2013-07-08 00:06:00,74.1,69.7,29.84,SSW,202,1.5,3.8,86,0.00,,,0.00,WUHU21623XXSP,2013-07-08 04:06:00,
2013-07-08 00:11:00,74.3,69.9,29.83,SSW,202,0.0,2.2,86,0.00,,,0.00,WUHU21623XXSP,2013-07-08 04:11:00,
2013-07-08 00:16:00,74.3,69.9,29.84,SSW,205,1.9,3.8,86,0.00,,,0.00,WUHU21623XXSP,2013-07-08 04:16:00,
2013-07-08 00:21:00,74.3,69.9,29.84,South,180,0.0,3.8,86,0.00,,,0.00,WUHU21623XXSP,2013-07-08 04:21:00,
2013-07-08 00:26:00,74.1,69.7,29.84,SE,135,0.9,2.2,86,0.00,,,0.00,WUHU21623XXSP,2013-07-08 04:26:00,
2013-07-08 00:31:00,74.1,69.7,29.84,South,180,1.1,2.2,86,0.00,,,0.00,WUHU21623XXSP,2013-07-08 04:31:00,
2013-07-08 00:36:00,73.9,69.5,29.84,SSW,202,0.9,1.1,86,0.00,,,0.00,WUHU21623XXSP,2013-07-08 04:36:00,
2013-07-08 00:41:00,73.9,69.5,29.85,SSW,202,0.0,1.1,86,0.00,,,0.00,WUHU21623XXSP,2013-07-08 04:41:00,
2013-07-08 00:46:00,73.6,69.2,29.85,South,180,1.3,2.7,86,0.00,,,0.00,WUHU21623XXSP,2013-07-08 04:46:00,
2013-07-08 00:51:00,73.6,69.5,29.84,SSE,157,2.5,2.7,87,0.00,,,0.00,WUHU21623XXSP,2013-07-08 04:51:00,
2013-07-08 00:56:00,73.6,69.5,29.84,South,180,0.0,2.5,87,0.00,,,0.00,WUHU21623XXSP,2013-07-08 04:56:00,
2013-07-08 01:01:00,73.6,69.5,29.85,South,180,0.0,1.3,87,0.00,,,0.00,WUHU21623XXSP,2013-07-08 05:01:00,
2013-07-08 01:06:00,73.6,69.5,29.85,South,180,0.7,3.4,87,0.00,,,0.00,WUHU21623XXSP,2013-07-08 05:06:00,
2013-07-08 01:11:00,73.6,69.5,29.85,SSW,202,1.8,3.4,87,0.00,,,0.00,WUHU21623XXSP,2013-07-08 05:11:00,
2013-07-08 01:16:00,73.6,69.5,29.84,SSW,202,0.0,2.5,87,0.00,,,0.00,WUHU21623XXSP,2013-07-08 05:16:00,
2013-07-08 01:21:00,73.8,69.7,29.85,SSW,202,0.0,2.2,87,0.00,,,0.00,WUHU21623XXSP,2013-07-08 05:21:00,
2013-07-08 01:26:00,73.8,69.7,29.85,SW,225,1.3,2.2,87,0.00,,,0.00,WUHU21623XXSP,2013-07-08 05:26:00,
2013-07-08 01:31:00,73.8,69.7,29.84,SSW,196,1.4,3.8,87,0.00,,,0.00,WUHU21623XXSP,2013-07-08 05:31:00,
2013-07-08 01:36:00,73.9,69.9,29.84,WSW,247,4.7,4.7,87,0.00,,,0.00,WUHU21623XXSP,2013-07-08 05:36:00,
2013-07-08 01:41:00,74.1,70.0,29.84,SSW,193,2.8,6.0,87,0.00,,,0.00,WUHU21623XXSP,2013-07-08 05:41:00,
2013-07-08 01:46:00,74.1,70.0,29.84,SSW,202,3.0,10.5,87,0.00,,,0.00,WUHU21623XXSP,2013-07-08 05:46:00,
2013-07-08 01:51:00,74.3,69.9,29.84,SSW,202,0.0,10.5,86,0.00,,,0.00,WUHU21623XXSP,2013-07-08 05:51:00,
2013-07-08 01:56:00,74.5,70.1,29.84,SSW,202,2.5,2.9,86,0.00,,,0.00,WUHU21623XXSP,2013-07-08 05:56:00,
2013-07-08 02:01:00,74.5,70.1,29.84,SW,225,0.0,3.4,86,0.00,,,0.00,WUHU21623XXSP,2013-07-08 06:01:00,
2013-07-08 02:06:00,74.3,69.9,29.84,South,189,1.9,3.4,86,0.00,,,0.00,WUHU21623XXSP,2013-07-08 06:06:00,
2013-07-08 02:11:00,74.5,70.1,29.84,SSW,199,1.6,3.4,86,0.00,,,0.00,WUHU21623XXSP,2013-07-08 06:11:00,
2013-07-08 02:16:00,74.5,70.1,29.84,SSW,199,2.3,3.8,86,0.00,,,0.00,WUHU21623XXSP,2013-07-08 06:16:00,
2013-07-08 02:21:00,74.5,70.1,29.84,South,180,3.1,4.3,86,0.00,,,0.00,WUHU21623XXSP,2013-07-08 06:21:00,
2013-07-08 02:26:00,74.5,70.1,29.84,SSW,205,1.1,4.3,86,0.00,,,0.00,WUHU21623XXSP,2013-07-08 06:26:00,
2013-07-08 02:31:00,74.5,70.1,29.84,SSW,202,1.0,4.3,86,0.00,,,0.00,WUHU21623XXSP,2013-07-08 06:31:00,
2013-07-08 02:36:00,74.5,70.1,29.84,SSW,205,2.5,4.3,86,0.00,,,0.00,WUHU21623XXSP,2013-07-08 06:36:00,
2013-07-08 02:41:00,74.5,70.1,29.84,SSW,197,1.5,4.3,86,0.00,,,0.00,WUHU21623XXSP,2013-07-08 06:41:00,
2013-07-08 02:46:00,74.5,70.1,29.84,SSW,202,3.6,3.6,86,0.00,,,0.00,WUHU21623XXSP,2013-07-08 06:46:00,
2013-07-08 02:51:00,74.5,70.1,29.84,SSW,201,1.2,3.6,86,0.00,,,0.00,WUHU21623XXSP,2013-07-08 06:51:00,
2013-07-08 02:56:00,74.5,70.1,29.84,SSW,198,1.3,6.9,86,0.00,,,0.00,WUHU21623XXSP,2013-07-08 06:56:00,
2013-07-08 03:01:00,74.5,70.1,29.84,SSW,202,4.9,6.9,86,0.00,,,0.00,WUHU21623XXSP,2013-07-08 07:01:00,
2013-07-08 03:06:00,74.5,70.1,29.84,SW,216,1.3,4.9,86,0.00,,,0.00,WUHU21623XXSP,2013-07-08 07:06:00,
2013-07-08 03:11:00,74.5,69.7,29.84,SSW,202,2.2,3.8,85,0.00,,,0.00,WUHU21623XXSP,2013-07-08 07:11:00,
2013-07-08 03:16:00,74.5,69.7,29.84,SSW,209,2.2,5.4,85,0.00,,,0.00,WUHU21623XXSP,2013-07-08 07:16:00,
2013-07-08 03:21:00,74.5,69.7,29.84,SSW,202,2.9,5.4,85,0.00,,,0.00,WUHU21623XXSP,2013-07-08 07:21:00,
2013-07-08 03:26:00,74.5,69.7,29.84,SSW,194,3.0,6.3,85,0.00,,,0.00,WUHU21623XXSP,2013-07-08 07:26:00,
2013-07-08 03:31:00,74.5,69.7,29.84,SSW,206,2.1,6.3,85,0.00,,,0.00,WUHU21623XXSP,2013-07-08 07:31:00,
2013-07-08 03:36:00,74.5,69.7,29.84,South,180,1.6,4.5,85,0.00,,,0.00,WUHU21623XXSP,2013-07-08 07:36:00,
2013-07-08 03:41:00,74.5,69.7,29.84,SSW,200,0.8,6.7,85,0.00,,,0.00,WUHU21623XXSP,2013-07-08 07:41:00,
2013-07-08 03:46:00,74.7,69.9,29.84,SSW,202,4.5,6.7,85,0.00,,,0.00,WUHU21623XXSP,2013-07-08 07:46:00,
2013-07-08 03:51:00,74.8,70.1,29.84,South,181,2.5,7.8,85,0.00,,,0.00,WUHU21623XXSP,2013-07-08 07:51:00,
2013-07-08 03:56:00,74.8,70.1,29.84,South,189,2.5,8.3,85,0.00,,,0.00,WUHU21623XXSP,2013-07-08 07:56:00,
2013-07-08 04:01:00,74.8,70.1,29.84,SW,225,2.0,8.3,85,0.00,,,0.00,WUHU21623XXSP,2013-07-08 08:01:00,
2013-07-08 04:06:00,74.8,70.1,29.84,SW,227,2.6,5.8,85,0.00,,,0.00,WUHU21623XXSP,2013-07-08 08:06:00,
2013-07-08 04:11:00,74.8,70.1,29.84,SW,225,2.2,7.6,85,0.00,,,0.00,WUHU21623XXSP,2013-07-08 08:11:00,
2013-07-08 04:16:00,75.0,69.9,29.84,SSW,209,4.1,8.3,84,0.00,,,0.00,WUHU21623XXSP,2013-07-08 08:16:00,
2013-07-08 04:21:00,75.0,69.9,29.84,SSW,210,2.8,8.3,84,0.00,,,0.00,WUHU21623XXSP,2013-07-08 08:21:00,
2013-07-08 04:26:00,75.2,70.1,29.83,SSW,210,1.9,5.1,84,0.00,,,0.00,WUHU21623XXSP,2013-07-08 08:26:00,
2013-07-08 04:31:00,75.2,69.9,29.83,SSW,213,2.3,4.9,83,0.00,,,0.00,WUHU21623XXSP,2013-07-08 08:31:00,
2013-07-08 04:36:00,75.4,69.9,29.83,SSW,202,1.6,4.9,83,0.00,,,0.00,WUHU21623XXSP,2013-07-08 08:36:00,
2013-07-08 04:41:00,75.4,69.9,29.84,SSW,197,1.2,4.3,83,0.00,,,0.00,WUHU21623XXSP,2013-07-08 08:41:00,
2013-07-08 04:46:00,75.4,69.6,29.83,SSW,202,8.3,9.8,82,0.00,,,0.00,WUHU21623XXSP,2013-07-08 08:46:00,
2013-07-08 04:51:00,75.4,69.6,29.83,WSW,243,1.1,9.8,82,0.00,,,0.00,WUHU21623XXSP,2013-07-08 08:51:00,
2013-07-08 04:56:00,75.4,69.6,29.83,SW,214,0.9,6.7,82,0.00,,,0.00,WUHU21623XXSP,2013-07-08 08:56:00,
2013-07-08 05:01:00,75.4,69.6,29.83,WSW,247,0.9,6.7,82,0.00,,,0.00,WUHU21623XXSP,2013-07-08 09:01:00,
2013-07-08 05:06:00,75.4,69.6,29.84,SW,223,1.4,8.9,82,0.00,,,0.00,WUHU21623XXSP,2013-07-08 09:06:00,
2013-07-08 05:11:00,75.4,69.6,29.84,SW,225,2.5,8.9,82,0.00,,,0.00,WUHU21623XXSP,2013-07-08 09:11:00,
2013-07-08 05:16:00,75.4,69.6,29.83,SSW,198,2.5,4.3,82,0.00,,,0.00,WUHU21623XXSP,2013-07-08 09:16:00,
2013-07-08 05:21:00,75.2,69.4,29.83,SSW,202,2.9,4.3,82,0.00,,,0.00,WUHU21623XXSP,2013-07-08 09:21:00,
2013-07-08 05:26:00,75.0,69.2,29.83,South,188,2.3,4.3,82,0.00,,,0.00,WUHU21623XXSP,2013-07-08 09:26:00,
2013-07-08 05:31:00,75.0,69.2,29.83,South,176,1.2,4.3,82,0.00,,,0.00,WUHU21623XXSP,2013-07-08 09:31:00,
2013-07-08 05:36:00,75.0,69.2,29.83,SW,225,2.2,2.2,82,0.00,,,0.00,WUHU21623XXSP,2013-07-08 09:36:00,
2013-07-08 05:41:00,74.8,69.0,29.83,SSW,203,1.3,2.2,82,0.00,,,0.00,WUHU21623XXSP,2013-07-08 09:41:00,
2013-07-08 05:46:00,74.8,69.4,29.83,SSW,193,1.1,2.0,83,0.00,,,0.00,WUHU21623XXSP,2013-07-08 09:46:00,
2013-07-08 05:51:00,74.5,69.0,29.82,South,190,1.5,3.1,83,0.00,,,0.00,WUHU21623XXSP,2013-07-08 09:51:00,
2013-07-08 05:56:00,74.5,69.0,29.82,SW,222,2.3,3.8,83,0.00,,,0.00,WUHU21623XXSP,2013-07-08 09:56:00,
2013-07-08 06:01:00,74.3,68.8,29.82,SSW,202,0.0,3.8,83,0.00,,,0.00,WUHU21623XXSP,2013-07-08 10:01:00,
2013-07-08 06:06:00,74.1,68.7,29.83,SSW,202,0.0,1.6,83,0.00,,,0.00,WUHU21623XXSP,2013-07-08 10:06:00,
2013-07-08 06:11:00,73.9,68.8,29.83,South,180,1.1,1.6,84,0.00,,,0.00,WUHU21623XXSP,2013-07-08 10:11:00,
2013-07-08 06:16:00,73.6,68.5,29.83,SSW,202,0.7,2.5,84,0.00,,,0.00,WUHU21623XXSP,2013-07-08 10:16:00,
2013-07-08 06:21:00,73.6,68.8,29.83,SSW,202,0.0,2.5,85,0.00,,,0.00,WUHU21623XXSP,2013-07-08 10:21:00,
2013-07-08 06:26:00,73.4,68.6,29.83,SSW,202,1.3,2.0,85,0.00,,,0.00,WUHU21623XXSP,2013-07-08 10:26:00,
2013-07-08 06:31:00,73.2,68.1,29.84,SSW,202,0.0,1.3,84,0.00,,,0.00,WUHU21623XXSP,2013-07-08 10:31:00,
2013-07-08 06:36:00,73.0,67.9,29.84,SSW,202,0.0,0.0,84,0.00,,,0.00,WUHU21623XXSP,2013-07-08 10:36:00,
2013-07-08 06:41:00,73.0,68.3,29.84,South,180,0.9,0.9,85,0.00,,,0.00,WUHU21623XXSP,2013-07-08 10:41:00,
2013-07-08 06:46:00,72.7,67.9,29.84,South,180,0.0,0.9,85,0.00,,,0.00,WUHU21623XXSP,2013-07-08 10:46:00,
2013-07-08 06:51:00,72.7,68.3,29.84,SSW,202,0.0,0.0,86,0.00,,,0.00,WUHU21623XXSP,2013-07-08 10:51:00,
2013-07-08 06:56:00,72.7,68.3,29.84,SW,225,0.9,0.9,86,0.00,,,0.00,WUHU21623XXSP,2013-07-08 10:56:00,
2013-07-08 07:01:00,72.7,68.3,29.85,SSW,202,0.0,3.1,86,0.00,,,0.00,WUHU21623XXSP,2013-07-08 11:01:00,
2013-07-08 07:06:00,72.7,68.3,29.85,South,190,1.0,3.1,86,0.00,,,0.00,WUHU21623XXSP,2013-07-08 11:06:00,
2013-07-08 07:11:00,72.7,68.6,29.84,SW,223,1.1,3.1,87,0.00,,,0.00,WUHU21623XXSP,2013-07-08 11:11:00,
2013-07-08 07:16:00,72.9,68.8,29.84,South,169,1.2,4.5,87,0.00,,,0.00,WUHU21623XXSP,2013-07-08 11:16:00,
2013-07-08 07:21:00,73.0,69.0,29.84,SSW,198,1.5,5.8,87,0.00,,,0.00,WUHU21623XXSP,2013-07-08 11:21:00,
2013-07-08 07:26:00,73.2,68.8,29.84,South,176,2.4,5.8,86,0.00,,,0.00,WUHU21623XXSP,2013-07-08 11:26:00,
2013-07-08 07:31:00,73.4,69.0,29.84,South,182,1.1,4.3,86,0.00,,,0.00,WUHU21623XXSP,2013-07-08 11:31:00,
2013-07-08 07:36:00,73.6,69.2,29.84,South,188,1.9,3.8,86,0.00,,,0.00,WUHU21623XXSP,2013-07-08 11:36:00,
2013-07-08 07:41:00,73.8,69.3,29.83,South,180,1.8,3.8,86,0.00,,,0.00,WUHU21623XXSP,2013-07-08 11:41:00,
2013-07-08 07:46:00,73.9,69.5,29.83,South,186,1.9,6.3,86,0.00,,,0.00,WUHU21623XXSP,2013-07-08 11:46:00,
2013-07-08 07:51:00,73.9,69.2,29.84,South,180,1.5,6.3,85,0.00,,,0.00,WUHU21623XXSP,2013-07-08 11:51:00,
2013-07-08 07:56:00,74.1,69.3,29.84,SSW,192,1.9,4.5,85,0.00,,,0.00,WUHU21623XXSP,2013-07-08 11:56:00,
2013-07-08 08:01:00,74.3,69.5,29.84,SSW,211,1.1,4.5,85,0.00,,,0.00,WUHU21623XXSP,2013-07-08 12:01:00,
2013-07-08 08:06:00,74.5,69.7,29.84,SSW,206,1.4,3.8,85,0.00,,,0.00,WUHU21623XXSP,2013-07-08 12:06:00,
2013-07-08 08:11:00,74.5,69.7,29.84,South,175,2.3,4.7,85,0.00,,,0.00,WUHU21623XXSP,2013-07-08 12:11:00,
2013-07-08 08:16:00,74.5,69.7,29.84,SSW,207,1.6,4.7,85,0.00,,,0.00,WUHU21623XXSP,2013-07-08 12:16:00,
2013-07-08 08:21:00,74.8,70.1,29.84,South,185,1.8,3.6,85,0.00,,,0.00,WUHU21623XXSP,2013-07-08 12:21:00,
2013-07-08 08:26:00,74.8,70.1,29.84,South,190,2.6,4.5,85,0.00,,,0.00,WUHU21623XXSP,2013-07-08 12:26:00,
2013-07-08 08:31:00,74.8,70.1,29.84,SSW,193,1.7,5.8,85,0.00,,,0.00,WUHU21623XXSP,2013-07-08 12:31:00,
2013-07-08 08:36:00,74.8,69.7,29.85,SE,135,1.8,5.8,84,0.00,,,0.00,WUHU21623XXSP,2013-07-08 12:36:00,
2013-07-08 08:41:00,74.8,69.7,29.85,SSW,198,1.9,4.9,84,0.00,,,0.00,WUHU21623XXSP,2013-07-08 12:41:00,
2013-07-08 08:46:00,75.0,69.9,29.84,SSW,202,3.8,4.5,84,0.00,,,0.00,WUHU21623XXSP,2013-07-08 12:46:00,
2013-07-08 08:51:00,75.2,70.1,29.84,SSW,199,2.0,5.8,84,0.00,,,0.00,WUHU21623XXSP,2013-07-08 12:51:00,
2013-07-08 08:56:00,75.4,70.3,29.85,SSW,202,5.1,8.7,84,0.00,,,0.00,WUHU21623XXSP,2013-07-08 12:56:00,
2013-07-08 09:01:00,75.4,70.3,29.85,SSW,211,0.9,8.7,84,0.00,,,0.00,WUHU21623XXSP,2013-07-08 13:01:00,
2013-07-08 09:06:00,75.6,70.4,29.85,SW,225,2.2,4.0,84,0.00,,,0.00,WUHU21623XXSP,2013-07-08 13:06:00,
2013-07-08 09:11:00,75.6,70.4,29.85,SE,135,1.1,4.0,84,0.00,,,0.00,WUHU21623XXSP,2013-07-08 13:11:00,
2013-07-08 09:16:00,75.7,70.6,29.85,South,175,0.9,4.0,84,0.00,,,0.00,WUHU21623XXSP,2013-07-08 13:16:00,
2013-07-08 09:21:00,75.9,70.4,29.85,SSW,202,2.5,5.4,83,0.00,,,0.00,WUHU21623XXSP,2013-07-08 13:21:00,
2013-07-08 09:26:00,76.1,70.6,29.85,SSW,195,2.9,7.4,83,0.00,,,0.00,WUHU21623XXSP,2013-07-08 13:26:00,
2013-07-08 09:31:00,76.3,70.7,29.85,South,180,7.4,7.4,83,0.00,,,0.00,WUHU21623XXSP,2013-07-08 13:31:00,
2013-07-08 09:36:00,76.6,70.7,29.85,SW,225,2.7,8.5,82,0.00,,,0.00,WUHU21623XXSP,2013-07-08 13:36:00,
2013-07-08 09:41:00,76.8,70.5,29.85,SSW,212,5.1,10.7,81,0.00,,,0.00,WUHU21623XXSP,2013-07-08 13:41:00,
2013-07-08 09:46:00,77.0,70.7,29.85,South,184,1.6,10.7,81,0.00,,,0.00,WUHU21623XXSP,2013-07-08 13:46:00,
2013-07-08 09:51:00,77.2,70.9,29.86,SSE,159,1.9,7.6,81,0.00,,,0.00,WUHU21623XXSP,2013-07-08 13:51:00,
2013-07-08 09:56:00,77.5,70.9,29.86,South,188,3.8,9.8,80,0.00,,,0.00,WUHU21623XXSP,2013-07-08 13:56:00,
2013-07-08 10:01:00,77.5,70.9,29.86,SSW,202,3.1,9.8,80,0.00,,,0.00,WUHU21623XXSP,2013-07-08 14:01:00,
2013-07-08 10:06:00,77.7,71.1,29.86,ENE,67,2.0,7.8,80,0.00,,,0.00,WUHU21623XXSP,2013-07-08 14:06:00,
2013-07-08 10:11:00,77.7,70.7,29.86,South,180,2.9,8.1,79,0.00,,,0.00,WUHU21623XXSP,2013-07-08 14:11:00,
2013-07-08 10:16:00,77.5,70.5,29.87,SSW,202,2.0,8.1,79,0.00,,,0.00,WUHU21623XXSP,2013-07-08 14:16:00,
2013-07-08 10:21:00,77.5,70.5,29.87,SW,225,1.6,7.4,79,0.00,,,0.00,WUHU21623XXSP,2013-07-08 14:21:00,
2013-07-08 10:26:00,77.4,70.3,29.87,WSW,250,1.1,6.7,79,0.00,,,0.00,WUHU21623XXSP,2013-07-08 14:26:00,
2013-07-08 10:31:00,77.4,70.3,29.87,SSW,205,4.1,11.0,79,0.00,,,0.00,WUHU21623XXSP,2013-07-08 14:31:00,
2013-07-08 10:36:00,77.4,70.3,29.87,SW,222,1.6,11.0,79,0.00,,,0.00,WUHU21623XXSP,2013-07-08 14:36:00,
2013-07-08 10:41:00,77.2,70.5,29.88,SSW,202,3.1,5.8,80,0.00,,,0.00,WUHU21623XXSP,2013-07-08 14:41:00,
2013-07-08 10:46:00,77.0,70.3,29.88,SSW,208,4.5,6.7,80,0.00,,,0.00,WUHU21623XXSP,2013-07-08 14:46:00,
2013-07-08 10:51:00,76.8,70.5,29.89,SW,225,1.6,6.7,81,0.00,,,0.00,WUHU21623XXSP,2013-07-08 14:51:00,
2013-07-08 10:56:00,76.6,70.4,29.89,South,179,3.4,8.1,81,0.00,,,0.00,WUHU21623XXSP,2013-07-08 14:56:00,
2013-07-08 11:01:00,76.3,70.4,29.89,WSW,247,0.9,8.1,82,0.00,,,0.00,WUHU21623XXSP,2013-07-08 15:01:00,
2013-07-08 11:06:00,76.1,70.2,29.89,WSW,237,1.3,5.1,82,0.00,,,0.00,WUHU21623XXSP,2013-07-08 15:06:00,
2013-07-08 11:11:00,75.9,70.1,29.89,South,187,1.5,3.6,82,0.00,,,0.00,WUHU21623XXSP,2013-07-08 15:11:00,
2013-07-08 11:16:00,75.6,70.1,29.89,SW,236,1.7,4.5,83,0.00,,,0.00,WUHU21623XXSP,2013-07-08 15:16:00,
2013-07-08 11:21:00,75.2,70.1,29.89,SSW,202,1.6,4.5,84,0.00,,,0.00,WUHU21623XXSP,2013-07-08 15:21:00,
2013-07-08 11:26:00,75.0,69.9,29.90,NW,315,0.0,2.5,84,0.00,,,0.00,WUHU21623XXSP,2013-07-08 15:26:00,
2013-07-08 11:31:00,74.8,69.7,29.89,SSW,202,2.0,2.5,84,0.00,,,0.00,WUHU21623XXSP,2013-07-08 15:31:00,
2013-07-08 11:36:00,74.5,69.7,29.89,South,180,0.0,6.3,85,0.02,,,0.02,WUHU21623XXSP,2013-07-08 15:36:00,
2013-07-08 11:41:00,74.3,69.5,29.89,SSE,157,0.0,6.3,85,0.02,,,0.02,WUHU21623XXSP,2013-07-08 15:41:00,
2013-07-08 11:46:00,74.1,69.7,29.89,South,189,2.3,5.8,86,0.02,,,0.02,WUHU21623XXSP,2013-07-08 15:46:00,
2013-07-08 11:51:00,74.1,70.0,29.87,South,180,0.9,5.8,87,0.02,,,0.02,WUHU21623XXSP,2013-07-08 15:51:00,
2013-07-08 11:56:00,74.1,70.0,29.88,SSW,202,1.8,3.4,87,0.02,,,0.02,WUHU21623XXSP,2013-07-08 15:56:00,
2013-07-08 12:01:00,73.9,69.9,29.88,SW,217,1.1,3.4,87,0.02,,,0.02,WUHU21623XXSP,2013-07-08 16:01:00,
2013-07-08 12:06:00,74.1,70.0,29.89,SW,214,0.9,3.1,87,0.02,,,0.02,WUHU21623XXSP,2013-07-08 16:06:00,
2013-07-08 12:11:00,74.3,70.2,29.88,SSW,202,4.0,5.8,87,0.02,,,0.02,WUHU21623XXSP,2013-07-08 16:11:00,
2013-07-08 12:16:00,74.5,70.7,29.88,SSW,208,2.2,5.8,88,0.02,,,0.02,WUHU21623XXSP,2013-07-08 16:16:00,
2013-07-08 12:21:00,74.8,70.8,29.89,SSW,208,1.5,4.5,87,0.02,,,0.02,WUHU21623XXSP,2013-07-08 16:21:00,
2013-07-08 12:26:00,74.8,70.8,29.88,West,270,0.0,4.5,87,0.02,,,0.02,WUHU21623XXSP,2013-07-08 16:26:00,
2013-07-08 12:31:00,75.0,70.9,29.88,South,178,1.3,4.5,87,0.02,,,0.02,WUHU21623XXSP,2013-07-08 16:31:00,
2013-07-08 12:36:00,74.8,70.4,29.88,South,170,3.1,5.8,86,0.00,,,0.02,WUHU21623XXSP,2013-07-08 16:36:00,
2013-07-08 12:41:00,75.0,70.6,29.88,SSW,202,1.8,6.7,86,0.00,,,0.02,WUHU21623XXSP,2013-07-08 16:41:00,
2013-07-08 12:47:00,75.0,70.6,29.88,South,191,2.6,8.7,86,0.00,,,0.02,WUHU21623XXSP,2013-07-08 16:47:00,
2013-07-08 12:52:00,75.0,70.6,29.88,SSW,197,2.1,8.7,86,0.00,,,0.02,WUHU21623XXSP,2013-07-08 16:52:00,
2013-07-08 12:57:00,75.0,70.6,29.88,SSW,199,1.7,8.9,86,0.00,,,0.02,WUHU21623XXSP,2013-07-08 16:57:00,
2013-07-08 13:02:00,74.8,70.1,29.88,SSW,208,2.5,8.9,85,0.00,,,0.02,WUHU21623XXSP,2013-07-08 17:02:00,
2013-07-08 13:07:00,74.8,70.1,29.87,SSW,202,9.2,9.2,85,0.00,,,0.02,WUHU21623XXSP,2013-07-08 17:07:00,
2013-07-08 13:12:00,74.5,69.7,29.87,SSW,203,3.0,9.2,85,0.00,,,0.02,WUHU21623XXSP,2013-07-08 17:12:00,
2013-07-08 13:17:00,74.5,69.7,29.86,SSW,199,2.9,10.3,85,0.00,,,0.02,WUHU21623XXSP,2013-07-08 17:17:00,
2013-07-08 13:22:00,74.5,69.4,29.87,SSW,211,5.4,10.3,84,0.00,,,0.02,WUHU21623XXSP,2013-07-08 17:22:00,
2013-07-08 13:27:00,74.3,69.2,29.86,SW,225,3.6,10.3,84,0.00,,,0.02,WUHU21623XXSP,2013-07-08 17:27:00,
2013-07-08 13:32:00,74.1,69.0,29.85,SSW,200,2.1,11.6,84,0.00,,,0.02,WUHU21623XXSP,2013-07-08 17:32:00,
2013-07-08 13:37:00,74.1,69.0,29.85,SSW,202,11.2,11.6,84,0.00,,,0.02,WUHU21623XXSP,2013-07-08 17:37:00,
2013-07-08 13:43:00,74.1,69.0,29.85,SSW,202,2.7,16.6,84,0.00,,,0.02,WUHU21623XXSP,2013-07-08 17:43:00,
2013-07-08 13:48:00,73.9,68.8,29.85,SW,216,1.6,15.0,84,0.00,,,0.02,WUHU21623XXSP,2013-07-08 17:48:00,
2013-07-08 13:53:00,73.9,68.8,29.85,SSW,192,3.0,8.9,84,0.00,,,0.02,WUHU21623XXSP,2013-07-08 17:53:00,
2013-07-08 13:58:00,73.9,68.8,29.85,South,180,8.1,8.9,84,0.00,,,0.02,WUHU21623XXSP,2013-07-08 17:58:00,
2013-07-08 14:03:00,73.8,68.6,29.85,South,187,2.7,15.2,84,0.00,,,0.02,WUHU21623XXSP,2013-07-08 18:03:00,
2013-07-08 14:08:00,73.9,69.2,29.85,WSW,254,2.2,15.2,85,0.00,,,0.02,WUHU21623XXSP,2013-07-08 18:08:00,
2013-07-08 14:13:00,73.9,68.8,29.86,South,179,4.2,8.1,84,0.00,,,0.02,WUHU21623XXSP,2013-07-08 18:13:00,
2013-07-08 14:19:00,73.8,68.6,29.85,SSW,202,3.8,8.1,84,0.00,,,0.02,WUHU21623XXSP,2013-07-08 18:19:00,
2013-07-08 14:24:00,73.9,68.5,29.85,SSE,157,4.9,13.2,83,0.00,,,0.02,WUHU21623XXSP,2013-07-08 18:24:00,
2013-07-08 14:29:00,73.6,68.5,29.84,South,180,10.1,10.5,84,0.00,,,0.02,WUHU21623XXSP,2013-07-08 18:29:00,
2013-07-08 14:34:00,73.8,68.3,29.84,South,191,3.4,10.1,83,0.00,,,0.02,WUHU21623XXSP,2013-07-08 18:34:00,
2013-07-08 14:40:00,73.8,68.3,29.84,South,180,5.6,9.2,83,0.00,,,0.02,WUHU21623XXSP,2013-07-08 18:40:00,
2013-07-08 14:45:00,73.6,67.8,29.84,SSW,193,4.0,10.7,82,0.00,,,0.02,WUHU21623XXSP,2013-07-08 18:45:00,
2013-07-08 14:50:00,73.6,67.8,29.84,SSW,207,5.2,13.6,82,0.00,,,0.02,WUHU21623XXSP,2013-07-08 18:50:00,
2013-07-08 14:55:00,73.8,67.6,29.84,SW,217,3.3,13.6,81,0.00,,,0.02,WUHU21623XXSP,2013-07-08 18:55:00,
2013-07-08 15:00:00,73.9,67.5,29.84,SSW,201,3.7,11.9,80,0.00,,,0.02,WUHU21623XXSP,2013-07-08 19:00:00,
2013-07-08 15:05:00,73.9,67.5,29.83,SSW,196,3.1,15.9,80,0.00,,,0.02,WUHU21623XXSP,2013-07-08 19:05:00,
2013-07-08 15:10:00,74.1,67.2,29.84,SW,225,6.0,15.9,79,0.00,,,0.02,WUHU21623XXSP,2013-07-08 19:10:00,
2013-07-08 15:15:00,74.5,68.0,29.83,SSW,202,5.8,13.2,80,0.00,,,0.02,WUHU21623XXSP,2013-07-08 19:15:00,
2013-07-08 15:21:00,74.8,68.4,29.83,SSW,193,2.2,13.2,80,0.00,,,0.02,WUHU21623XXSP,2013-07-08 19:21:00,
2013-07-08 15:26:00,75.0,68.1,29.82,South,171,1.1,9.4,79,0.00,,,0.02,WUHU21623XXSP,2013-07-08 19:26:00,
2013-07-08 15:31:00,75.4,68.5,29.82,SSW,212,3.6,8.5,79,0.00,,,0.02,WUHU21623XXSP,2013-07-08 19:31:00,
2013-07-08 15:36:00,75.6,68.3,29.83,SSW,209,3.0,12.8,78,0.00,,,0.02,WUHU21623XXSP,2013-07-08 19:36:00,
2013-07-08 15:41:00,75.6,67.9,29.82,SSW,206,2.6,12.8,77,0.00,,,0.02,WUHU21623XXSP,2013-07-08 19:41:00,
2013-07-08 15:47:00,75.7,68.0,29.82,SSW,203,1.6,12.5,77,0.00,,,0.02,WUHU21623XXSP,2013-07-08 19:47:00,
2013-07-08 15:52:00,75.7,68.0,29.82,South,180,3.8,12.5,77,0.00,,,0.02,WUHU21623XXSP,2013-07-08 19:52:00,
2013-07-08 15:57:00,75.6,68.3,29.83,SSW,201,2.9,7.6,78,0.00,,,0.02,WUHU21623XXSP,2013-07-08 19:57:00,
2013-07-08 16:03:00,75.6,68.3,29.82,SSW,211,1.8,7.6,78,0.00,,,0.02,WUHU21623XXSP,2013-07-08 20:03:00,
2013-07-08 16:08:00,75.7,68.4,29.82,South,180,1.6,3.8,78,0.00,,,0.02,WUHU21623XXSP,2013-07-08 20:08:00,
2013-07-08 16:14:00,75.9,68.6,29.82,SSW,204,2.5,5.4,78,0.00,,,0.02,WUHU21623XXSP,2013-07-08 20:14:00,
2013-07-08 16:19:00,76.6,69.2,29.82,SSW,210,1.8,5.4,78,0.00,,,0.02,WUHU21623XXSP,2013-07-08 20:19:00,
2013-07-08 16:24:00,76.8,69.0,29.82,South,180,3.4,6.7,77,0.00,,,0.02,WUHU21623XXSP,2013-07-08 20:24:00,
2013-07-08 16:29:00,77.4,69.5,29.82,West,275,2.0,6.7,77,0.00,,,0.02,WUHU21623XXSP,2013-07-08 20:29:00,
2013-07-08 16:35:00,77.5,69.7,29.82,SW,223,2.2,8.1,77,0.00,,,0.02,WUHU21623XXSP,2013-07-08 20:35:00,
2013-07-08 16:40:00,77.7,69.9,29.82,ESE,119,1.5,8.1,77,0.00,,,0.02,WUHU21623XXSP,2013-07-08 20:40:00,
2013-07-08 16:46:00,77.7,69.9,29.82,SSW,204,2.7,5.6,77,0.00,,,0.02,WUHU21623XXSP,2013-07-08 20:46:00,
2013-07-08 16:51:00,77.7,69.9,29.81,SSW,202,0.8,5.6,77,0.00,,,0.02,WUHU21623XXSP,2013-07-08 20:51:00,
2013-07-08 16:57:00,77.5,70.1,29.81,SSE,157,0.0,3.4,78,0.00,,,0.02,WUHU21623XXSP,2013-07-08 20:57:00,
2013-07-08 17:02:00,77.4,69.9,29.81,WSW,247,0.7,4.3,78,0.00,,,0.02,WUHU21623XXSP,2013-07-08 21:02:00,
2013-07-08 17:08:00,77.2,69.7,29.81,SW,225,0.7,4.3,78,0.00,,,0.02,WUHU21623XXSP,2013-07-08 21:08:00,
2013-07-08 17:13:00,77.4,69.9,29.81,South,180,1.8,2.5,78,0.00,,,0.02,WUHU21623XXSP,2013-07-08 21:13:00,
2013-07-08 17:18:00,77.4,69.9,29.82,WSW,247,2.2,2.5,78,0.00,,,0.02,WUHU21623XXSP,2013-07-08 21:18:00,
2013-07-08 17:23:00,77.4,69.9,29.82,WSW,247,0.0,2.2,78,0.00,,,0.02,WUHU21623XXSP,2013-07-08 21:23:00,
2013-07-08 17:30:00,77.4,70.3,29.82,SSW,202,0.0,0.0,79,0.00,,,0.02,WUHU21623XXSP,2013-07-08 21:30:00,
2013-07-08 17:35:00,77.2,70.5,29.81,WSW,247,0.0,0.9,80,0.00,,,0.02,WUHU21623XXSP,2013-07-08 21:35:00,
2013-07-08 17:41:00,77.2,70.5,29.81,WSW,247,0.0,0.9,80,0.00,,,0.02,WUHU21623XXSP,2013-07-08 21:41:00,
2013-07-08 17:46:00,76.8,70.2,29.81,WSW,256,0.9,1.8,80,0.00,,,0.02,WUHU21623XXSP,2013-07-08 21:46:00,
2013-07-08 17:51:00,76.8,70.2,29.82,SSW,202,0.0,2.0,80,0.00,,,0.02,WUHU21623XXSP,2013-07-08 21:51:00,
2013-07-08 17:56:00,76.8,70.2,29.82,SSW,202,0.0,2.0,80,0.00,,,0.02,WUHU21623XXSP,2013-07-08 21:56:00,
2013-07-08 18:01:00,76.6,70.4,29.82,SSW,202,0.0,0.0,81,0.00,,,0.02,WUHU21623XXSP,2013-07-08 22:01:00,
2013-07-08 18:06:00,76.3,70.4,29.82,SSW,202,0.0,0.0,82,0.00,,,0.02,WUHU21623XXSP,2013-07-08 22:06:00,
2013-07-08 18:11:00,75.9,70.1,29.81,SSW,202,0.0,0.0,82,0.00,,,0.02,WUHU21623XXSP,2013-07-08 22:11:00,
2013-07-08 18:16:00,75.7,70.2,29.81,SSW,202,0.0,0.0,83,0.00,,,0.02,WUHU21623XXSP,2013-07-08 22:16:00,
2013-07-08 18:22:00,75.6,70.4,29.81,SSW,202,0.0,0.0,84,0.00,,,0.02,WUHU21623XXSP,2013-07-08 22:22:00,
2013-07-08 18:27:00,75.4,70.3,29.81,SSW,202,0.0,0.0,84,0.00,,,0.02,WUHU21623XXSP,2013-07-08 22:27:00,
2013-07-08 18:32:00,75.4,70.3,29.81,SSW,202,0.0,0.0,84,0.00,,,0.02,WUHU21623XXSP,2013-07-08 22:32:00,
2013-07-08 18:38:00,75.0,70.3,29.81,SSW,202,0.0,0.0,85,0.00,,,0.02,WUHU21623XXSP,2013-07-08 22:38:00,
2013-07-08 18:43:00,75.0,70.3,29.81,SSW,202,0.0,0.0,85,0.00,,,0.02,WUHU21623XXSP,2013-07-08 22:43:00,
2013-07-08 18:49:00,75.0,70.6,29.81,SSW,202,0.0,0.0,86,0.00,,,0.02,WUHU21623XXSP,2013-07-08 22:49:00,
2013-07-08 18:54:00,75.0,70.6,29.81,SSW,202,0.0,0.0,86,0.00,,,0.02,WUHU21623XXSP,2013-07-08 22:54:00,
2013-07-08 18:59:00,75.0,70.6,29.81,SSW,202,0.0,0.0,86,0.00,,,0.02,WUHU21623XXSP,2013-07-08 22:59:00,
2013-07-08 19:04:00,75.2,70.8,29.80,SSW,202,0.7,0.7,86,0.00,,,0.02,WUHU21623XXSP,2013-07-08 23:04:00,
2013-07-08 19:10:00,75.4,70.9,29.80,SSW,202,0.0,0.7,86,0.00,,,0.02,WUHU21623XXSP,2013-07-08 23:10:00,
2013-07-08 19:16:00,75.4,70.9,29.80,SSE,157,0.0,0.0,86,0.00,,,0.02,WUHU21623XXSP,2013-07-08 23:16:00,
2013-07-08 19:22:00,75.4,70.9,29.80,SSE,157,0.0,0.0,86,0.00,,,0.02,WUHU21623XXSP,2013-07-08 23:22:00,
2013-07-08 19:27:00,75.4,70.9,29.80,SSE,157,0.0,0.0,86,0.00,,,0.02,WUHU21623XXSP,2013-07-08 23:27:00,
2013-07-08 19:32:00,75.4,70.9,29.80,SSE,157,0.0,0.0,86,0.00,,,0.02,WUHU21623XXSP,2013-07-08 23:32:00,
2013-07-08 19:37:00,75.4,70.9,29.80,SSE,157,0.0,0.0,86,0.00,,,0.02,WUHU21623XXSP,2013-07-08 23:37:00,
2013-07-08 19:43:00,75.4,70.9,29.80,SSE,157,0.0,0.0,86,0.00,,,0.02,WUHU21623XXSP,2013-07-08 23:43:00,
2013-07-08 19:48:00,75.6,71.1,29.80,South,180,0.0,0.0,86,0.00,,,0.02,WUHU21623XXSP,2013-07-08 23:48:00,
2013-07-08 19:53:00,75.6,71.1,29.80,South,180,0.0,0.0,86,0.00,,,0.02,WUHU21623XXSP,2013-07-08 23:53:00,
2013-07-08 19:59:00,75.4,70.9,29.79,South,180,0.0,0.0,86,0.00,,,0.02,WUHU21623XXSP,2013-07-08 23:59:00,
2013-07-08 20:04:00,75.4,70.9,29.80,South,180,0.0,0.0,86,0.00,,,0.02,WUHU21623XXSP,2013-07-09 00:04:00,
2013-07-08 20:09:00,75.4,70.9,29.80,South,180,0.0,0.0,86,0.00,,,0.02,WUHU21623XXSP,2013-07-09 00:09:00,
2013-07-08 20:15:00,75.4,70.9,29.80,South,180,0.0,0.0,86,0.00,,,0.02,WUHU21623XXSP,2013-07-09 00:15:00,
2013-07-08 20:20:00,75.2,70.8,29.80,South,180,0.0,0.0,86,0.00,,,0.02,WUHU21623XXSP,2013-07-09 00:20:00,
2013-07-08 20:26:00,75.0,70.6,29.80,South,180,0.0,0.0,86,0.00,,,0.02,WUHU21623XXSP,2013-07-09 00:26:00,
2013-07-08 20:31:00,75.0,70.6,29.80,South,180,0.0,0.0,86,0.00,,,0.02,WUHU21623XXSP,2013-07-09 00:31:00,
2013-07-08 20:36:00,74.8,70.8,29.80,South,180,0.0,0.0,87,0.00,,,0.02,WUHU21623XXSP,2013-07-09 00:36:00,
2013-07-08 20:41:00,74.8,70.8,29.80,South,180,0.0,0.0,87,0.00,,,0.02,WUHU21623XXSP,2013-07-09 00:41:00,
2013-07-08 20:46:00,74.5,70.4,29.80,South,180,0.0,0.0,87,0.00,,,0.02,WUHU21623XXSP,2013-07-09 00:46:00,
2013-07-08 20:51:00,74.5,70.4,29.80,South,180,0.0,0.0,87,0.00,,,0.02,WUHU21623XXSP,2013-07-09 00:51:00,
2013-07-08 20:57:00,74.1,70.0,29.80,NW,315,0.0,0.0,87,0.00,,,0.02,WUHU21623XXSP,2013-07-09 00:57:00,
2013-07-08 21:02:00,74.1,70.0,29.80,NW,315,0.0,0.0,87,0.00,,,0.02,WUHU21623XXSP,2013-07-09 01:02:00,
2013-07-08 21:07:00,74.1,70.4,29.80,SW,225,0.0,0.0,88,0.00,,,0.02,WUHU21623XXSP,2013-07-09 01:07:00,
2013-07-08 21:12:00,74.1,70.4,29.80,SW,225,0.0,0.0,88,0.00,,,0.02,WUHU21623XXSP,2013-07-09 01:12:00,
2013-07-08 21:17:00,73.9,70.2,29.80,SW,225,0.0,0.0,88,0.00,,,0.02,WUHU21623XXSP,2013-07-09 01:17:00,
2013-07-08 21:22:00,73.9,70.2,29.80,SW,225,0.0,0.0,88,0.00,,,0.02,WUHU21623XXSP,2013-07-09 01:22:00,
2013-07-08 21:28:00,73.8,70.0,29.80,SW,225,0.0,0.0,88,0.00,,,0.02,WUHU21623XXSP,2013-07-09 01:28:00,
2013-07-08 21:33:00,73.8,70.0,29.80,SW,225,0.0,0.0,88,0.00,,,0.02,WUHU21623XXSP,2013-07-09 01:33:00,
2013-07-08 21:39:00,73.6,69.8,29.79,SW,225,0.0,0.0,88,0.00,,,0.02,WUHU21623XXSP,2013-07-09 01:39:00,
2013-07-08 21:44:00,73.6,69.8,29.80,SW,225,0.0,0.0,88,0.00,,,0.02,WUHU21623XXSP,2013-07-09 01:44:00,
2013-07-08 21:49:00,73.6,69.8,29.80,SW,225,0.0,0.0,88,0.00,,,0.02,WUHU21623XXSP,2013-07-09 01:49:00,
2013-07-08 21:54:00,73.6,70.2,29.80,SSW,202,0.0,0.9,89,0.00,,,0.02,WUHU21623XXSP,2013-07-09 01:54:00,
2013-07-08 21:59:00,73.6,70.2,29.80,SSW,202,0.0,1.3,89,0.00,,,0.02,WUHU21623XXSP,2013-07-09 01:59:00,
2013-07-08 22:05:00,73.6,70.5,29.80,SSW,202,0.0,1.6,90,0.00,,,0.02,WUHU21623XXSP,2013-07-09 02:05:00,
2013-07-08 22:10:00,73.8,70.4,29.80,SSW,202,0.0,1.6,89,0.00,,,0.02,WUHU21623XXSP,2013-07-09 02:10:00,
2013-07-08 22:15:00,73.8,70.4,29.81,SSW,202,0.0,1.6,89,0.00,,,0.02,WUHU21623XXSP,2013-07-09 02:15:00,
2013-07-08 22:21:00,73.8,70.7,29.81,SSE,157,1.6,1.6,90,0.00,,,0.02,WUHU21623XXSP,2013-07-09 02:21:00,
2013-07-08 22:27:00,73.8,70.4,29.81,South,180,0.0,1.6,89,0.00,,,0.02,WUHU21623XXSP,2013-07-09 02:27:00,
2013-07-08 22:32:00,73.8,70.4,29.81,SSW,202,3.7,5.1,89,0.00,,,0.02,WUHU21623XXSP,2013-07-09 02:32:00,
2013-07-08 22:37:00,73.9,70.9,29.82,SSW,205,2.0,5.1,90,0.00,,,0.02,WUHU21623XXSP,2013-07-09 02:37:00,
2013-07-08 22:42:00,74.1,70.7,29.82,SW,232,2.2,3.1,89,0.00,,,0.02,WUHU21623XXSP,2013-07-09 02:42:00,
2013-07-08 22:47:00,74.1,70.7,29.81,SSE,157,1.3,3.1,89,0.00,,,0.02,WUHU21623XXSP,2013-07-09 02:47:00,
2013-07-08 22:52:00,74.1,70.7,29.82,WNW,292,0.0,3.1,89,0.00,,,0.02,WUHU21623XXSP,2013-07-09 02:52:00,
2013-07-08 22:57:00,74.1,70.7,29.81,WSW,247,0.0,0.0,89,0.00,,,0.02,WUHU21623XXSP,2013-07-09 02:57:00,
2013-07-08 23:02:00,74.1,70.7,29.81,SW,225,0.0,0.0,89,0.00,,,0.02,WUHU21623XXSP,2013-07-09 03:02:00,
2013-07-08 23:07:00,74.1,70.7,29.82,South,188,2.1,2.2,89,0.00,,,0.02,WUHU21623XXSP,2013-07-09 03:07:00,
2013-07-08 23:14:00,74.1,70.7,29.82,SSW,210,3.9,6.3,89,0.00,,,0.02,WUHU21623XXSP,2013-07-09 03:14:00,
2013-07-08 23:19:00,74.3,70.9,29.82,SSW,213,1.0,6.3,89,0.00,,,0.02,WUHU21623XXSP,2013-07-09 03:19:00,
2013-07-08 23:24:00,74.3,70.6,29.82,South,180,2.2,4.5,88,0.00,,,0.02,WUHU21623XXSP,2013-07-09 03:24:00,
2013-07-08 23:29:00,74.3,70.6,29.82,SSW,202,2.9,6.3,88,0.00,,,0.02,WUHU21623XXSP,2013-07-09 03:29:00,
2013-07-08 23:35:00,74.3,70.2,29.82,SW,217,2.1,6.3,87,0.00,,,0.02,WUHU21623XXSP,2013-07-09 03:35:00,
2013-07-08 23:41:00,74.1,70.0,29.81,SSW,210,1.3,2.9,87,0.00,,,0.02,WUHU21623XXSP,2013-07-09 03:41:00,
2013-07-08 23:46:00,73.9,69.9,29.82,ESE,112,0.0,1.6,87,0.00,,,0.02,WUHU21623XXSP,2013-07-09 03:46:00,
2013-07-08 23:51:00,73.8,69.7,29.83,South,180,0.0,0.0,87,0.00,,,0.02,WUHU21623XXSP,2013-07-09 03:51:00,
2013-07-08 23:56:00,73.6,69.5,29.83,WNW,292,0.0,1.6,87,0.00,,,0.02,WUHU21623XXSP,2013-07-09 03:56:00,